Hourly Weather Gogolin

Today, 17 May, Monday

Time Temperature Precipitation Wind Pressure Humidity
00:00 +8°C° 0 mm 2 mps 742 mmHg 91%
01:00 +8°C° 0 mm 2 mps 742 mmHg 92%
02:00 +8°C° 0 mm 2 mps 742 mmHg 92%
03:00 +8°C° 0 mm 2 mps 742 mmHg 92%
04:00 +7°C° 0 mm 2 mps 742 mmHg 93%
05:00 +9°C° 0.1 mm 2 mps 742 mmHg 90%
06:00 +10°C° 0.1 mm 3 mps 742 mmHg 87%
07:00 +12°C° 0.1 mm 3 mps 742 mmHg 84%
08:00 +13°C° 0.2 mm 3 mps 742 mmHg 78%
09:00 +16°C° 0.2 mm 3 mps 742 mmHg 71%
10:00 +17°C° 0.2 mm 3 mps 742 mmHg 65%
11:00 +18°C° 0.2 mm 3 mps 742 mmHg 62%
12:00 +18°C° 0.2 mm 3 mps 742 mmHg 59%
13:00 +19°C° 0.2 mm 3 mps 742 mmHg 56%
14:00 +19°C° 0.1 mm 2 mps 742 mmHg 57%
15:00 +18°C° 0.1 mm 2 mps 742 mmHg 58%
16:00 +18°C° 0.1 mm 2 mps 742 mmHg 59%
17:00 +17°C° 0.3 mm 2 mps 742 mmHg 66%
18:00 +16°C° 0.3 mm 2 mps 742 mmHg 73%
19:00 +14°C° 0.3 mm 2 mps 742 mmHg 80%
20:00 +14°C° 0.2 mm 2 mps 743 mmHg 83%
21:00 +13°C° 0.2 mm 2 mps 743 mmHg 86%
22:00 +13°C° 0.2 mm 1 mps 743 mmHg 89%
23:00 +12°C° 0.2 mm 1 mps 743 mmHg 90%

Tomorrow, 18 May, Tuesday

Time Temperature Precipitation Wind Pressure Humidity
00:00 +12°C° 0.2 mm 1 mps 743 mmHg 91%
01:00 +12°C° 0.2 mm 1 mps 743 mmHg 92%
02:00 +12°C° 0.5 mm 1 mps 743 mmHg 93%
03:00 +10°C° 0.5 mm 2 mps 743 mmHg 94%
04:00 +10°C° 0.5 mm 2 mps 743 mmHg 96%
05:00 +12°C° 0.2 mm 2 mps 744 mmHg 94%
06:00 +11°C° 0.2 mm 3 mps 744 mmHg 92%
07:00 +12°C° 0.2 mm 3 mps 744 mmHg 90%
08:00 +12°C° 0.2 mm 3 mps 744 mmHg 86%
09:00 +13°C° 0.2 mm 3 mps 744 mmHg 81%
10:00 +14°C° 0.2 mm 4 mps 744 mmHg 77%
11:00 +14°C° 0.5 mm 4 mps 745 mmHg 77%
12:00 +14°C° 0.5 mm 4 mps 745 mmHg 76%
13:00 +14°C° 0.5 mm 4 mps 745 mmHg 75%
14:00 +14°C° 0.5 mm 4 mps 745 mmHg 76%
15:00 +14°C° 0.5 mm 3 mps 745 mmHg 78%
16:00 +14°C° 0.5 mm 3 mps 745 mmHg 79%
17:00 +13°C° 0.4 mm 3 mps 746 mmHg 81%
18:00 +14°C° 0.4 mm 2 mps 746 mmHg 84%
19:00 +13°C° 0.4 mm 2 mps 746 mmHg 87%
20:00 +12°C° 0.1 mm 2 mps 746 mmHg 89%
21:00 +10°C° 0.1 mm 2 mps 746 mmHg 91%
22:00 +10°C° 0.1 mm 2 mps 747 mmHg 93%
23:00 +9°C° 0 mm 2 mps 747 mmHg 94%

Day after tomorrow, 19 May, Wednesday

Time Temperature Precipitation Wind Pressure Humidity
00:00 +9°C° 0 mm 2 mps 747 mmHg 94%
01:00 +8°C° 0 mm 2 mps 747 mmHg 95%
02:00 +7°C° 0 mm 2 mps 747 mmHg 95%
03:00 +7°C° 0 mm 2 mps 747 mmHg 96%
04:00 +7°C° 0 mm 2 mps 747 mmHg 96%
05:00 +8°C° 0 mm 3 mps 748 mmHg 91%
06:00 +9°C° 0 mm 3 mps 748 mmHg 87%
07:00 +11°C° 0 mm 3 mps 748 mmHg 83%
08:00 +12°C° 0 mm 3 mps 748 mmHg 76%
09:00 +13°C° 0 mm 3 mps 748 mmHg 69%
10:00 +15°C° 0 mm 4 mps 748 mmHg 62%
11:00 +15°C° 0.2 mm 4 mps 748 mmHg 61%
12:00 +15°C° 0.2 mm 4 mps 748 mmHg 61%
13:00 +15°C° 0.2 mm 4 mps 748 mmHg 61%
14:00 +15°C° 0.6 mm 4 mps 748 mmHg 63%
15:00 +15°C° 0.6 mm 4 mps 749 mmHg 66%
16:00 +14°C° 0.6 mm 4 mps 749 mmHg 68%
17:00 +13°C° 0.3 mm 4 mps 749 mmHg 72%
18:00 +12°C° 0.3 mm 4 mps 749 mmHg 76%
19:00 +11°C° 0.3 mm 4 mps 749 mmHg 80%
20:00 +10°C° 0 mm 3 mps 750 mmHg 81%
21:00 +9°C° 0 mm 3 mps 750 mmHg 83%
22:00 +7°C° 0 mm 3 mps 751 mmHg 84%
23:00 +7°C° 0 mm 3 mps 751 mmHg 86%

20 May, Thursday

Time Temperature Precipitation Wind Pressure Humidity
00:00 +5°C° 0 mm 3 mps 751 mmHg 87%
01:00 +4°C° 0 mm 3 mps 751 mmHg 88%
02:00 +4°C° 0 mm 3 mps 751 mmHg 88%
03:00 +4°C° 0 mm 3 mps 751 mmHg 89%
04:00 +4°C° 0 mm 3 mps 751 mmHg 90%
05:00 +5°C° 0 mm 3 mps 751 mmHg 85%
06:00 +8°C° 0 mm 3 mps 752 mmHg 79%
07:00 +10°C° 0 mm 4 mps 752 mmHg 74%
08:00 +12°C° 0 mm 4 mps 752 mmHg 68%
09:00 +13°C° 0 mm 4 mps 752 mmHg 62%
10:00 +15°C° 0 mm 5 mps 752 mmHg 56%
11:00 +15°C° 0 mm 5 mps 752 mmHg 56%
12:00 +15°C° 0 mm 6 mps 751 mmHg 56%
13:00 +15°C° 0 mm 6 mps 751 mmHg 56%
14:00 +15°C° 0 mm 6 mps 751 mmHg 57%
15:00 +14°C° 0 mm 7 mps 752 mmHg 58%
16:00 +14°C° 0 mm 7 mps 752 mmHg 59%
17:00 +13°C° 0 mm 6 mps 752 mmHg 61%
18:00 +10°C° 0 mm 6 mps 752 mmHg 64%
19:00 +9°C° 0 mm 5 mps 752 mmHg 67%
20:00 +7°C° 0 mm 5 mps 752 mmHg 72%
21:00 +6°C° 0 mm 4 mps 753 mmHg 78%
22:00 +5°C° 0 mm 4 mps 753 mmHg 83%
23:00 +4°C° 0 mm 4 mps 753 mmHg 84%

21 May, Friday

Time Temperature Precipitation Wind Pressure Humidity
00:00 +4°C° 0 mm 4 mps 753 mmHg 86%
01:00 +3°C° 0 mm 3 mps 753 mmHg 87%
02:00 +3°C° 0 mm 4 mps 752 mmHg 88%
03:00 +3°C° 0 mm 4 mps 752 mmHg 89%
04:00 +3°C° 0 mm 4 mps 752 mmHg 90%
05:00 +3°C° 0 mm 5 mps 752 mmHg 85%
06:00 +4°C° 0 mm 6 mps 752 mmHg 80%
07:00 +7°C° 0 mm 6 mps 752 mmHg 74%
08:00 +8°C° 0 mm 6 mps 752 mmHg 68%
09:00 +9°C° 0 mm 6 mps 752 mmHg 61%
10:00 +10°C° 0 mm 7 mps 752 mmHg 55%
11:00 +11°C° 0 mm 6 mps 752 mmHg 55%
12:00 +11°C° 0 mm 6 mps 751 mmHg 55%
13:00 +13°C° 0 mm 6 mps 751 mmHg 56%
14:00 +13°C° 0 mm 6 mps 751 mmHg 58%
15:00 +13°C° 0 mm 5 mps 751 mmHg 60%
16:00 +12°C° 0 mm 4 mps 751 mmHg 63%
17:00 +12°C° 0 mm 3 mps 751 mmHg 67%
18:00 +11°C° 0 mm 3 mps 750 mmHg 71%
19:00 +10°C° 0 mm 2 mps 750 mmHg 75%
20:00 +10°C° 0 mm 2 mps 750 mmHg 76%
21:00 +9°C° 0 mm 2 mps 749 mmHg 77%
22:00 +9°C° 0 mm 2 mps 749 mmHg 78%
23:00 +9°C° 0 mm 3 mps 749 mmHg 80%

22 May, Saturday

Time Temperature Precipitation Wind Pressure Humidity
00:00 +9°C° 0 mm 3 mps 749 mmHg 81%
01:00 +9°C° 0 mm 3 mps 748 mmHg 82%
02:00 +9°C° 0 mm 3 mps 748 mmHg 85%
03:00 +9°C° 0 mm 3 mps 748 mmHg 88%
04:00 +9°C° 0 mm 3 mps 747 mmHg 90%
05:00 +10°C° 0 mm 3 mps 747 mmHg 88%
06:00 +11°C° 0 mm 4 mps 747 mmHg 85%
07:00 +12°C° 0 mm 4 mps 747 mmHg 82%
08:00 +14°C° 0 mm 5 mps 747 mmHg 76%
09:00 +15°C° 0 mm 5 mps 746 mmHg 70%
10:00 +16°C° 0 mm 6 mps 746 mmHg 63%
11:00 +16°C° 0.1 mm 6 mps 746 mmHg 65%
12:00 +16°C° 0.1 mm 5 mps 746 mmHg 67%
13:00 +16°C° 0.1 mm 5 mps 746 mmHg 69%
14:00 +15°C° 0.5 mm 5 mps 746 mmHg 73%
15:00 +15°C° 0.5 mm 5 mps 746 mmHg 77%
16:00 +14°C° 0.5 mm 5 mps 746 mmHg 81%
17:00 +14°C° 0.4 mm 4 mps 746 mmHg 83%
18:00 +13°C° 0.4 mm 4 mps 747 mmHg 84%
19:00 +12°C° 0.4 mm 3 mps 747 mmHg 86%
20:00 +11°C° 0.1 mm 3 mps 747 mmHg 88%
21:00 +10°C° 0.1 mm 3 mps 748 mmHg 90%
22:00 +9°C° 0.1 mm 2 mps 748 mmHg 93%
23:00 +9°C° 0 mm 2 mps 748 mmHg 92%
Show more